Weather History for KVPZ - January, 2012

Change the Weather History Date:

Wednesday, January 18, 2012

  Actual Average Record
Temperature  
Mean Temperature 17 °F 23 °F  
Max Temperature 24 °F 31 °F 46 °F (1999)
Min Temperature 9 °F 16 °F 0 °F (2003)
Degree Days  
Heating Degree Days 48 42  
Month to date heating degree days 636 747  
Since 1 July heating degree days 3149  
Cooling Degree Days 0 0  
Month to date cooling degree days 0 0  
Year to date cooling degree days 0 0  
Moisture  
Dew Point 12 °F    
Average Humidity 76    
Maximum Humidity 84    
Minimum Humidity 65    
Precipitation  
Precipitation T in 0.06 in 0.07 in (2011)
Month to date precipitation 0.31 0.98  
Year to date precipitation 0.31 0.98  
Sea Level Pressure  
Sea Level Pressure 30.19 in    
Wind  
Wind Speed 9 mph (SSW)    
Max Wind Speed 17 mph    
Max Gust Speed 23 mph    
Visibility 10 miles    
Events      
T = Trace of Precipitation, MM = Missing Value Source: NWS Daily Summary

Daily Weather History Graph

Daily Weather History Graph

Search for Another Location

Airport or City:

Trip Planner

Search our weather history database for the weather conditions in past years. The results will help you decide how hot, cold, wet, or windy it might be!

Date:

Astronomy

Jan. 18, 2012 Rise Set
Actual Time 7:10 AM CST 4:46 PM CST
Civil Twilight 6:40 AM CST 5:16 PM CST
Nautical Twilight 6:06 AM CST 5:50 PM CST
Astronomical Twilight 5:33 AM CST 6:23 PM CST
Moon 2:40 AM CST (1/18) 12:24 PM CST (1/18)
Length of Visible Light 10h 36m
Length of Day
9h 35m
Waning Crescent, 24% of the Moon is Illuminated
Jan 18
Waning Crescent
Jan 23
New
Jan 30
First Quarter
Feb 7
Full
Feb 14
Last Quarter

Hourly Weather History & Observations

Time (CST) Temp. Windchill Dew Point Humidity Pressure Visibility Wind Dir Wind Speed Gust Speed Precip Events Conditions
12:53 AM 19.9 °F 9.3 °F 12.9 °F 74% 30.26 in 10.0 mi WNW 9.2 mph 18.4 mph 0.00 in   Overcast
1:53 AM 19.0 °F 8.2 °F 12.0 °F 74% 30.28 in 10.0 mi WNW 9.2 mph - N/A   Overcast
2:53 AM 17.1 °F 6.6 °F 12.0 °F 81% 30.29 in 10.0 mi West 8.1 mph - N/A   Overcast
3:53 AM 15.1 °F 3.3 °F 9.0 °F 77% 30.30 in 10.0 mi West 9.2 mph - N/A   Overcast
4:28 AM 12.2 °F 2.9 °F 6.8 °F 79% 30.26 in 10.0 mi WSW 5.8 mph - N/A   Scattered Clouds
4:53 AM 12.0 °F 2.7 °F 7.0 °F 80% 30.30 in 10.0 mi WSW 5.8 mph - N/A   Clear
5:53 AM 10.0 °F 0.4 °F 6.1 °F 84% 30.30 in 10.0 mi WSW 5.8 mph - N/A   Clear
6:53 AM 10.0 °F 3.6 °F 5.0 °F 80% 30.31 in 10.0 mi WSW 3.5 mph - N/A   Clear
7:53 AM 10.0 °F 1.8 °F 6.1 °F 84% 30.33 in 10.0 mi West 4.6 mph - N/A   Clear
8:53 AM 12.9 °F - 7.0 °F 77% 30.32 in 10.0 mi Calm Calm - N/A   Clear
9:53 AM 15.1 °F 7.7 °F 8.1 °F 74% 30.32 in 10.0 mi SSW 4.6 mph - N/A   Clear
10:53 AM 18.0 °F 6.1 °F 10.9 °F 74% 30.31 in 10.0 mi South 10.4 mph - N/A   Clear
11:53 AM 19.0 °F 7.5 °F 12.0 °F 74% 30.26 in 10.0 mi South 10.4 mph - N/A   Clear
12:53 PM 21.0 °F 10.6 °F 12.9 °F 71% 30.20 in 10.0 mi South 9.2 mph - N/A   Clear
1:53 PM 21.9 °F 10.4 °F 12.9 °F 68% 30.17 in 10.0 mi South 11.5 mph - N/A   Clear
2:53 PM 24.1 °F 13.7 °F 14.0 °F 65% 30.17 in 10.0 mi South 10.4 mph - N/A   Clear
3:53 PM 24.1 °F 14.4 °F 14.0 °F 65% 30.14 in 10.0 mi South 9.2 mph - N/A   Clear
4:53 PM 23.0 °F 13.1 °F 16.0 °F 74% 30.12 in 10.0 mi South 9.2 mph - N/A   Mostly Cloudy
5:53 PM 23.0 °F 12.4 °F 16.0 °F 74% 30.08 in 10.0 mi SSE 10.4 mph - N/A   Overcast
6:53 PM 23.0 °F 12.4 °F 17.1 °F 78% 30.06 in 10.0 mi South 10.4 mph - N/A   Scattered Clouds
7:53 PM 23.0 °F 13.1 °F 17.1 °F 78% 30.03 in 10.0 mi SSE 9.2 mph - N/A   Overcast
8:53 PM 23.0 °F 11.1 °F 16.0 °F 74% 29.98 in 10.0 mi South 12.7 mph - N/A   Scattered Clouds
9:53 PM 21.9 °F 12.5 °F 16.0 °F 78% 29.98 in 10.0 mi South 8.1 mph - N/A   Clear
10:53 PM 23.0 °F 12.4 °F 16.0 °F 74% 29.98 in 10.0 mi SSW 10.4 mph - N/A   Clear
11:53 PM 23.0 °F 10.6 °F 17.1 °F 78% 29.95 in 10.0 mi SSW 13.8 mph - N/A   Clear